Location: Karlsruhe
(49.0069°N, 8.4037°E)
Time: 16:22:57
(UTC+01:00)

ISS - Visible Passes

Search period start: 16 March 2026 00:00
Search period end: 26 March 2026 00:00
Orbit: 417 x 426 km, 51.6° (Epoch: 16 March)

Date Brightness Start Highest point End Pass type
(mag) Time Alt. Az. Time Alt. Az. Time Alt. Az.
16 Mar -3.6 19:02:12 10° SW 19:05:34 60° SSE 19:08:55 10° ENE visible
16 Mar -3.3 20:39:08 10° W 20:42:27 56° N 20:42:27 56° N visible
17 Mar -3.4 19:52:14 10° W 19:55:37 63° NNW 19:57:38 22° ENE visible
17 Mar -1.1 21:29:22 10° WNW 21:30:39 21° WNW 21:30:39 21° WNW visible
18 Mar -3.6 19:05:21 10° WSW 19:08:45 76° NNW 19:12:09 10° ENE visible
18 Mar -3.2 20:42:30 10° WNW 20:45:46 52° N 20:45:46 52° N visible
19 Mar -3.2 19:55:34 10° W 19:58:55 52° N 20:00:49 22° ENE visible
19 Mar -1.1 21:32:35 10° WNW 21:33:50 21° WNW 21:33:50 21° WNW visible
20 Mar -3.2 19:08:37 10° W 19:11:59 55° N 19:15:21 10° ENE visible
20 Mar -3.4 20:45:42 10° WNW 20:48:51 64° NNW 20:48:51 64° NNW visible
21 Mar -3.4 19:58:48 10° WNW 20:02:10 58° N 20:03:52 26° E visible
21 Mar -1.1 21:35:43 10° WNW 21:36:52 19° W 21:36:52 19° W visible
22 Mar -3.2 19:11:51 10° WNW 19:15:12 53° N 19:18:33 10° E visible
22 Mar -3.5 20:48:48 10° WNW 20:51:52 66° WSW 20:51:52 66° WSW visible
23 Mar -3.8 20:01:52 10° WNW 20:05:17 84° NNE 20:06:53 29° ESE visible
23 Mar -0.9 21:39:02 10° W 21:39:53 15° W 21:39:53 15° W visible
24 Mar -3.6 19:14:56 10° WNW 19:18:20 68° NNE 19:21:43 10° E visible
24 Mar -2.6 20:51:55 10° W 20:54:54 35° SW 20:54:54 35° SW visible
25 Mar -3.2 20:04:53 10° WNW 20:08:12 51° SSW 20:09:57 24° SE visible
